When you browse on this site, cookies collect data to enhance your experience and personalize the content and advertising you see.
Visit our Privacy Policy to learn more. By continuing to use the site, you agree to this use of cookies and data.
  • In Austria
  • List of Countries
  • For 7 days
  • Water Temperature
  • Weather Map
  • News
  • Weather Widgets
  • user-avatar
    Login

    Hourly Weather Quipile

    Today, 21 November, Thursday

    Time Temperature Precipitation Wind Pressure Humidity
    00:00 +12°C° 0.2 mm 1 mps 596 mmHg 93%
    01:00 +12°C° 0.2 mm 1 mps 596 mmHg 93%
    02:00 +12°C° 0.2 mm 1 mps 596 mmHg 93%
    03:00 +11°C° 0.2 mm 1 mps 596 mmHg 93%
    04:00 +11°C° 0.2 mm 1 mps 596 mmHg 93%
    05:00 +12°C° 0 mm 1 mps 596 mmHg 91%
    06:00 +12°C° 0 mm 0 mps 597 mmHg 89%
    07:00 +12°C° 0 mm 0 mps 597 mmHg 88%
    08:00 +15°C° 0.3 mm 1 mps 598 mmHg 84%
    09:00 +16°C° 0.3 mm 1 mps 599 mmHg 80%
    10:00 +19°C° 0.3 mm 1 mps 599 mmHg 77%
    11:00 +20°C° 0.5 mm 1 mps 599 mmHg 74%
    12:00 +20°C° 0.5 mm 1 mps 598 mmHg 72%
    13:00 +21°C° 0.5 mm 1 mps 598 mmHg 69%
    14:00 +21°C° 0.6 mm 1 mps 598 mmHg 71%
    15:00 +20°C° 0.6 mm 1 mps 597 mmHg 72%
    16:00 +20°C° 0.6 mm 1 mps 597 mmHg 74%
    17:00 +18°C° 0.4 mm 1 mps 596 mmHg 79%
    18:00 +16°C° 0.4 mm 1 mps 596 mmHg 84%
    19:00 +14°C° 0.4 mm 1 mps 596 mmHg 89%
    20:00 +14°C° 0.5 mm 1 mps 596 mmHg 89%
    21:00 +13°C° 0.5 mm 1 mps 596 mmHg 90%
    22:00 +13°C° 0.5 mm 1 mps 597 mmHg 90%
    23:00 +12°C° 0.1 mm 1 mps 596 mmHg 90%

    Tomorrow, 22 November, Friday

    Time Temperature Precipitation Wind Pressure Humidity
    00:00 +12°C° 0.1 mm 1 mps 596 mmHg 89%
    01:00 +12°C° 0.1 mm 1 mps 596 mmHg 89%
    02:00 +12°C° 0 mm 1 mps 595 mmHg 88%
    03:00 +12°C° 0 mm 1 mps 595 mmHg 88%
    04:00 +12°C° 0 mm 1 mps 595 mmHg 88%
    05:00 +12°C° 0 mm 1 mps 596 mmHg 86%
    06:00 +13°C° 0 mm 1 mps 596 mmHg 84%
    07:00 +13°C° 0 mm 0 mps 597 mmHg 81%
    08:00 +16°C° 0 mm 1 mps 598 mmHg 76%
    09:00 +18°C° 0 mm 1 mps 599 mmHg 70%
    10:00 +19°C° 0 mm 2 mps 600 mmHg 64%
    11:00 +20°C° 0.5 mm 1 mps 599 mmHg 67%
    12:00 +20°C° 0.5 mm 1 mps 598 mmHg 71%
    13:00 +20°C° 0.5 mm 1 mps 597 mmHg 74%
    14:00 +20°C° 0.8 mm 1 mps 597 mmHg 75%
    15:00 +20°C° 0.8 mm 1 mps 596 mmHg 75%
    16:00 +20°C° 0.8 mm 1 mps 596 mmHg 76%
    17:00 +18°C° 0.5 mm 1 mps 596 mmHg 81%
    18:00 +15°C° 0.5 mm 1 mps 595 mmHg 86%
    19:00 +14°C° 0.5 mm 1 mps 595 mmHg 91%
    20:00 +13°C° 0.2 mm 1 mps 596 mmHg 90%
    21:00 +13°C° 0.2 mm 1 mps 596 mmHg 90%
    22:00 +13°C° 0.2 mm 1 mps 596 mmHg 90%
    23:00 +13°C° 0.4 mm 1 mps 596 mmHg 90%

    Day after tomorrow, 23 November, Saturday

    Time Temperature Precipitation Wind Pressure Humidity
    00:00 +12°C° 0.4 mm 1 mps 596 mmHg 90%
    01:00 +12°C° 0.4 mm 1 mps 595 mmHg 91%
    02:00 +12°C° 0.5 mm 1 mps 595 mmHg 92%
    03:00 +12°C° 0.5 mm 1 mps 595 mmHg 92%
    04:00 +12°C° 0.5 mm 1 mps 595 mmHg 93%
    05:00 +12°C° 0 mm 1 mps 596 mmHg 92%
    06:00 +13°C° 0 mm 1 mps 596 mmHg 90%
    07:00 +12°C° 0 mm 0 mps 597 mmHg 89%
    08:00 +15°C° 0.1 mm 1 mps 598 mmHg 83%
    09:00 +16°C° 0.1 mm 1 mps 598 mmHg 78%
    10:00 +19°C° 0.1 mm 1 mps 599 mmHg 73%
    11:00 +19°C° 0.7 mm 1 mps 598 mmHg 73%
    12:00 +20°C° 0.7 mm 1 mps 598 mmHg 74%
    13:00 +20°C° 0.7 mm 1 mps 597 mmHg 75%
    14:00 +20°C° 1 mm 1 mps 597 mmHg 77%
    15:00 +19°C° 1 mm 1 mps 596 mmHg 80%
    16:00 +19°C° 1 mm 1 mps 596 mmHg 82%
    17:00 +16°C° 0.6 mm 1 mps 596 mmHg 85%
    18:00 +15°C° 0.6 mm 1 mps 596 mmHg 88%
    19:00 +14°C° 0.6 mm 1 mps 596 mmHg 91%
    20:00 +13°C° 0.2 mm 1 mps 596 mmHg 91%
    21:00 +13°C° 0.2 mm 1 mps 596 mmHg 91%
    22:00 +13°C° 0.2 mm 1 mps 596 mmHg 90%
    23:00 +13°C° 0.1 mm 1 mps 596 mmHg 90%

    24 November, Sunday

    Time Temperature Precipitation Wind Pressure Humidity
    00:00 +13°C° 0.1 mm 1 mps 596 mmHg 91%
    01:00 +13°C° 0.1 mm 1 mps 596 mmHg 91%
    02:00 +12°C° 0 mm 1 mps 595 mmHg 91%
    03:00 +12°C° 0 mm 1 mps 595 mmHg 91%
    04:00 +12°C° 0 mm 1 mps 595 mmHg 92%
    05:00 +12°C° 0 mm 1 mps 595 mmHg 90%
    06:00 +12°C° 0 mm 0 mps 596 mmHg 88%
    07:00 +13°C° 0 mm 0 mps 597 mmHg 86%
    08:00 +14°C° 0.1 mm 0 mps 598 mmHg 81%
    09:00 +18°C° 0.1 mm 1 mps 598 mmHg 76%
    10:00 +20°C° 0.1 mm 1 mps 599 mmHg 70%
    11:00 +20°C° 0.4 mm 1 mps 598 mmHg 71%
    12:00 +20°C° 0.4 mm 1 mps 598 mmHg 71%
    13:00 +20°C° 0.4 mm 1 mps 597 mmHg 72%
    14:00 +20°C° 0.8 mm 1 mps 596 mmHg 73%
    15:00 +20°C° 0.8 mm 1 mps 596 mmHg 75%
    16:00 +19°C° 0.8 mm 1 mps 596 mmHg 77%
    17:00 +18°C° 0.9 mm 1 mps 595 mmHg 81%
    18:00 +16°C° 0.9 mm 1 mps 595 mmHg 86%
    19:00 +14°C° 0.9 mm 1 mps 595 mmHg 91%
    20:00 +14°C° 1 mm 1 mps 596 mmHg 91%
    21:00 +14°C° 1 mm 1 mps 596 mmHg 92%
    22:00 +14°C° 1 mm 1 mps 597 mmHg 92%
    23:00 +14°C° 0.3 mm 1 mps 596 mmHg 92%

    25 November, Monday

    Time Temperature Precipitation Wind Pressure Humidity
    00:00 +14°C° 0.3 mm 1 mps 596 mmHg 92%
    01:00 +13°C° 0.3 mm 1 mps 596 mmHg 92%
    02:00 +13°C° 0.1 mm 1 mps 595 mmHg 92%
    03:00 +13°C° 0.1 mm 1 mps 595 mmHg 93%
    04:00 +12°C° 0.1 mm 1 mps 595 mmHg 94%
    05:00 +13°C° 0 mm 1 mps 595 mmHg 92%
    06:00 +12°C° 0 mm 0 mps 596 mmHg 91%
    07:00 +13°C° 0 mm 0 mps 596 mmHg 90%
    08:00 +15°C° 0.2 mm 1 mps 597 mmHg 84%
    09:00 +18°C° 0.2 mm 1 mps 597 mmHg 78%
    10:00 +20°C° 0.2 mm 1 mps 598 mmHg 72%
    11:00 +20°C° 0.3 mm 1 mps 597 mmHg 72%
    12:00 +20°C° 0.3 mm 1 mps 596 mmHg 72%
    13:00 +21°C° 0.3 mm 1 mps 596 mmHg 72%
    14:00 +20°C° 0.3 mm 1 mps 595 mmHg 73%
    15:00 +20°C° 0.3 mm 1 mps 595 mmHg 75%
    16:00 +20°C° 0.3 mm 1 mps 594 mmHg 76%
    17:00 +19°C° 0.8 mm 1 mps 594 mmHg 81%
    18:00 +16°C° 0.8 mm 1 mps 594 mmHg 86%
    19:00 +15°C° 0.8 mm 1 mps 594 mmHg 91%
    20:00 +14°C° 1.2 mm 1 mps 595 mmHg 91%
    21:00 +14°C° 1.2 mm 1 mps 595 mmHg 92%
    22:00 +14°C° 1.2 mm 1 mps 595 mmHg 92%
    23:00 +14°C° 0.6 mm 1 mps 595 mmHg 92%

    26 November, Tuesday

    Time Temperature Precipitation Wind Pressure Humidity
    00:00 +13°C° 0.6 mm 1 mps 595 mmHg 92%
    01:00 +13°C° 0.6 mm 1 mps 594 mmHg 92%
    02:00 +13°C° 0.5 mm 1 mps 594 mmHg 92%
    03:00 +13°C° 0.5 mm 1 mps 594 mmHg 92%
    04:00 +13°C° 0.5 mm 1 mps 594 mmHg 93%
    05:00 +13°C° 0.5 mm 1 mps 595 mmHg 92%
    06:00 +13°C° 0.5 mm 1 mps 595 mmHg 91%
    07:00 +13°C° 0.5 mm 0 mps 596 mmHg 90%
    08:00 +15°C° 0.2 mm 1 mps 596 mmHg 85%
    09:00 +18°C° 0.2 mm 1 mps 597 mmHg 80%
    10:00 +20°C° 0.2 mm 1 mps 598 mmHg 75%
    11:00 +20°C° 0.7 mm 1 mps 597 mmHg 75%
    12:00 +20°C° 0.7 mm 1 mps 597 mmHg 76%
    13:00 +21°C° 0.7 mm 1 mps 596 mmHg 76%
    14:00 +21°C° 0.4 mm 1 mps 596 mmHg 75%
    15:00 +19°C° 0.4 mm 0 mps 595 mmHg 73%
    16:00 +19°C° 0.4 mm 0 mps 595 mmHg 72%
    17:00 +17°C° 0.7 mm 0 mps 595 mmHg 78%
    18:00 +18°C° 0.7 mm 1 mps 595 mmHg 84%
    19:00 +15°C° 0.7 mm 1 mps 595 mmHg 90%
    20:00 +15°C° 0.9 mm 1 mps 595 mmHg 90%
    21:00 +14°C° 0.9 mm 1 mps 595 mmHg 90%
    22:00 +14°C° 0.9 mm 1 mps 596 mmHg 90%
    23:00 +14°C° 0.2 mm 1 mps 595 mmHg 90%
    Show more